Regional Weather Roundup
Issued by NWS Upton, NY

Current Version | Previous Version | Text Only | Print | Product List | Glossary On
Versions: 1 2 3 4 5 6 7 8 9 10 11 12 13 14 15 16 17 18 19 20 21 22 23 24 25 26 27 28 29 30 31 32 33 34 35 36 37 38 39 40 41 42 43 44 45 46 47 48 49 50
000
ASUS41 KOKX 300608
RWROKX

REGIONAL WEATHER ROUNDUP
NATIONAL WEATHER SERVICE NEW YORK NY
200 AM EDT THU JUL 30 2015

NOTE: "FAIR" INDICATES FEW OR NO CLOUDS BELOW 12,000 FEET WITH NO
SIGNIFICANT WEATHER AND/OR OBSTRUCTIONS TO VISIBILITY.

NYZ071-072-176-178-NJZ106-104-300700-
NEW YORK CITY METRO AREA


CITY           SKY/WX    TMP DP  RH WIND       PRES   REMARKS
CENTRAL PARK   CLEAR     82  70  66 VRB7      29.96S
LAGUARDIA APRT PTCLDY    82  71  69 SW10      29.92S
KENNEDY INTL   PTCLDY    78  71  79 SW6       29.94S
NEWARK/LIBERTY PTCLDY    80  72  76 SW9       29.93S
BRNX BOT. GARD   N/A     81  72  74 W8        29.95S
TETERBORO      CLEAR     80  71  74 S6        29.92S
$$

NYZ177-179-078>081-300700-
LONG ISLAND NEW YORK

CITY           SKY/WX    TMP DP  RH WIND       PRES   REMARKS
FARMINGDALE    CLEAR     78  72  81 SW8       29.94S
ISLIP          CLEAR     77  72  84 SW9       29.92S
SHIRLEY        CLEAR     78  74  87 SW6       29.94S
WESTHAMPTON    CLEAR     77  75  93 SW9       29.95S
MONTAUK POINT    N/A     77  73  87 SW7       29.94S
$$

NYZ052-065-067-300700-
HUDSON VALLEY

CITY           SKY/WX    TMP DP  RH WIND       PRES   REMARKS
WHITE PLAINS   CLEAR     76  71  85 W3        29.93F
NEWBURGH       CLEAR     77  68  73 CALM      29.94
MONTGOMERY     CLEAR     72  68  87 SW7       29.92F
POUGHKEEPSIE   CLEAR     70  67  90 SE5       29.90F
ALBANY         PTCLDY    74  66  76 S5        29.89S
$$

NJZ001-105-106-008-010-013-015-019>022-104-300700-
NEW JERSEY

CITY           SKY/WX    TMP DP  RH WIND       PRES   REMARKS
NEWARK/LIBERTY PTCLDY    80  72  76 SW9       29.93S
TETERBORO      CLEAR     80  71  74 S6        29.92S
CALDWELL       CLEAR     78  71  79 SW3       29.93F
MORRISTOWN     CLEAR     77  72  83 CALM      29.94S
SOMERVILLE     CLEAR     73  71  93 CALM      29.92F
SUSSEX         CLEAR     70  67  90 CALM      29.94F
ANDOVER          N/A     71  70  96 CALM      29.95F
TRENTON        CLEAR     77  71  82 SW3       29.94F
MILLVILLE      CLEAR     77  72  84 CALM      29.97S
ATLANTIC CITY  PTCLDY    77  71  82 SW8       29.97S
WRIGHTSTOWN    CLEAR     74  73  99 S2        29.93S
TOMS RIVER       N/A     73  72  94 SW5       29.96S
BELMAR         CLEAR     75  68  78 SW7       29.95S
$$

PAZ047>061-062-071-300700-
EASTERN PENNSYLVANIA

CITY           SKY/WX    TMP DP  RH WIND       PRES   REMARKS
PHILADELPHIA   MOCLDY    80  72  76 SW8       29.95S
ALLENTOWN      PTCLDY    78  72  81 SW6       29.94F
SCRANTON       CLEAR     77  71  82 S5        29.95S
$$

CTZ002-004>006-009-010-012-RIZ004-006-007-MAZ004-011-015-300700-
SOUTHERN NEW ENGLAND
 IN CT

CITY           SKY/WX    TMP DP  RH WIND       PRES   REMARKS
BRADLEY INTL   CLEAR     75  67  76 S6        29.90S
HARTFORD       CLEAR     75  70  84 CALM      29.90F
DANBURY        CLEAR     78  67  68 SW6       29.94F
WTRBRY/OXFORD  CLEAR     75  66  73 SW3       29.96S
BRIDGEPORT     CLEAR     79  74  84 SW6       29.92S
MERIDEN        CLEAR     72  67  84 CALM      29.91F
NEW HAVEN      CLEAR     75  72  90 SW5       29.92S
CHESTER        FAIR      75  73  94 SW5       29.94F
GROTON         CLEAR     73  70  90 CALM      29.92S FOG
WILLIMANTIC    CLEAR     70  66  87 CALM      29.92F

 IN RI

CITY           SKY/WX    TMP DP  RH WIND       PRES   REMARKS
PROVIDENCE     CLEAR     76  69  79 W9        29.91F
BLOCK ISLAND     N/A     73  72  94 SW14      29.94S
WESTERLY       CLEAR     73  71  93 CALM      29.92F

 IN MA

CITY           SKY/WX    TMP DP  RH WIND       PRES   REMARKS
BOSTON         CLEAR     79  67  66 SW10      29.89S
WORCESTER      CLEAR     73  64  73 W9        29.94F
WESTFIELD      CLEAR     69  67  93 CALM      29.91S
PROVINCETOWN   CLEAR     72  63  73 SW10      29.90S
NANTUCKET      CLEAR     71  69  93 SW8       29.93S FOG
$$

ANZ330-335-338-340-345-350-353-355-300700-
COASTAL MARINE OBSERVATIONS


STATION/POSITION TIME  SKY/WX   TEMP    WIND        PRES    VSBY  WAVE
                                AIR SEA DIR/SP/G                  HT/PER
                 (UTC)          (F)     (DEG/KT/KT) (MB)    (MI)  (FT/S)
NY HARB ENTRANCE 0550            77 76  210/ 14/ 16 1013.4          3/ 9
4S FIRE IS       NOT AVBL
20S FIRE ISLAND  0550            76 74  220/ 12/ 14 1013.8          4/ 5
GREAT SOUTH BAY  0500            78 81  250/ 12/ 16   N/A
23SW MTP         0550            76 74  230/ 16/ 17 1013.3          4/10
HUDSON CANYON    NOT AVBL
KINGS POINT      0500            80                   N/A
EXECUTION ROCKS  0500            76     200/  4/  6   N/A
CENTRAL LI SOUND NOT AVBL
EASTERN LI SOUND 0500            71 68  200/  4/  6   N/A
ROBBINS REEF     0500            80                   N/A
$$


>>>>>>>>>>>>>>>>>>>>>>>>>>>> KEY <<<<<<<<<<<<<<<<<<<<<<<<<<<
>                                                          <
>     SKY/WX - SKY CONDITION/PRESENT WEATHER               <
>     TMP    - TEMPERATURE IN FAHRENHEIT                   <
>     DP     - DEWPOINT IN FAHRENHEIT                      <
>     RH     - RELATIVE HUMIDITY IN PERCENT                <
>     WIND   - DIRECTION AND SPEED IN MPH                  <
>     PRES   - MEAN SEA LEVEL PRESSURE IN INCHES OF HG     <
>     WCI    - WIND CHILL INDEX                            <
>     VSB    - VISIBILITY IN MILES                         <
>     HX     - HEAT INDEX                                  <
>     TC     - TEMPERATURE IN CELSIUS                      <
>     VRB    - VARIABLE WIND DIRECTION                     <
>                                                          <
>>>>>>>>>>>>>>>>>>>>>>>>>>>> KEY <<<<<<<<<<<<<<<<<<<<<<<<<<<





USA.gov is the U.S. government's official web portal to all federal, state and local government web resources and services.